Lid_Strength_Index
5 5 5 7 8 6 8 8 10 9 7 5 5 5 5 5 5 4 4 3 3 2 2 2 1 1 1 1 1 1 1 0
6 6 6 6 5 8 8 12 12 9 9 8 6 6 5 5 5 4 4 3 3 2 2 1 1 1 1 1 1 1 0 0
6 7 7 8 7 7 7 8 11 11 9 5 6 6 6 5 5 4 3 3 3 2 2 1 1 1 1 1 1 1 0 0
7 6 6 5 7 7 9 10 8 9 8 5 5 5 5 5 4 4 3 3 3 2 2 2 1 1 1 1 1 1 0 0
8 7 6 7 6 6 7 7 9 10 9 5 5 5 5 5 4 4 3 3 3 2 2 2 2 1 1 1 1 0 0 1
9 8 7 8 7 6 7 9 9 8 8 7 7 6 6 5 4 4 4 3 3 2 2 2 1 2 1 1 1 0 0 1
7 7 7 7 7 7 7 7 8 7 7 8 7 6 6 5 5 5 4 4 3 3 2 2 2 2 1 1 1 1 1 1
8 7 7 8 7 7 7 7 7 7 8 6 6 5 5 5 5 5 4 4 3 3 3 3 2 2 2 1 1 1 1 1
9 7 7 9 8 8 8 7 7 7 7 6 6 6 5 5 5 4 4 3 3 3 2 2 2 1 2 1 1 1 1 2
9 8 12 7 6 6 7 7 6 7 6 6 6 5 4 4 4 4 4 3 3 2 2 2 1 1 1 1 1 2 2 1
10 10 8 7 7 7 7 7 6 6 6 5 5 5 5 3 3 3 3 2 2 2 2 1 2 1 1 1 2 2 2 1
9 11 12 7 5 5 5 8 5 5 5 5 5 7 6 3 3 3 2 2 2 2 2 1 1 1 2 2 2 2 1 1
9 10 8 6 5 4 10 8 5 4 5 5 6 5 4 3 3 2 2 2 1 1 2 1 1 1 2 2 2 1 1 1
9 10 12 5 5 8 6 5 5 4 4 5 4 3 3 3 3 2 2 2 1 2 2 1 1 1 2 2 1 1 1 1
8 9 6 4 5 4 4 5 4 4 4 4 4 4 3 3 3 2 2 2 1 2 2 1 1 1 2 1 1 1 1 2
8 6 6 5 4 3 3 3 3 3 3 3 4 3 3 2 2 2 2 2 1 2 2 2 1 1 1 1 1 1 2 3
7 6 5 5 4 3 3 3 3 3 3 3 3 3 3 3 2 2 2 1 1 2 2 2 1 1 1 1 1 2 2 4
7 5 5 5 4 3 4 4 3 3 3 2 2 3 2 2 2 2 2 2 2 1 2 2 1 1 1 1 1 2 3 3
5 4 4 3 3 3 3 3 3 3 3 3 2 2 2 2 2 3 2 1 2 2 1 1 2 1 1 0 1 2 2 3